Altus AFB, OK

2:27 AM CST on December 05, 2016 (GMT -0600)
Altus Air Force Base

Weather History for KLTS - August, 2012

Change the Weather History Date:

Monday, August 13, 2012

  Actual Average Record
Temperature  
Mean Temperature 84 °F -  
Max Temperature 100 °F 93 °F 104 °F (2010)
Min Temperature 68 °F 70 °F 62 °F (1996)
Cooling Degree Days 18    
Growing Degree Days 34 (Base 50)    
Moisture  
Dew Point 52 °F    
Average Humidity 34    
Maximum Humidity 57    
Minimum Humidity 20    
Precipitation  
Precipitation 0.00 in - - ()
Sea Level Pressure  
Sea Level Pressure 29.96 in    
Wind  
Wind Speed 7 mph (NE)    
Max Wind Speed 12 mph    
Max Gust Speed -    
Visibility 10 miles    
Events      
Averages and records for this station are not official NWS values.
T = Trace of Precipitation, MM = Missing Value Source: NWS Daily Summary

Daily Weather History Graph

Daily Weather History Graph

Search for Another Location

Airport or City:

Trip Planner

Search our weather history database for the weather conditions in past years. The results will help you decide how hot, cold, wet, or windy it might be!

Date:

Astronomy

Aug. 13, 2012 Rise Set
Actual Time 6:56 AM CDT 8:26 PM CDT
Civil Twilight 6:29 AM CDT 8:53 PM CDT
Nautical Twilight 5:57 AM CDT 9:25 PM CDT
Astronomical Twilight 5:23 AM CDT 9:58 PM CDT
Moon 3:05 AM CDT (8/13) 5:35 PM CDT (8/13)
Length of Visible Light 14h 23m
Length of Day
13h 30m
Waning Crescent, 16% of the Moon is Illuminated
Aug 13
Waning Crescent
Aug 17
New
Aug 24
First Quarter
Aug 31
Full
Sep 8
Last Quarter

Hourly Weather History & Observations

Time (CDT) Temp. Heat Index Dew Point Humidity Pressure Visibility Wind Dir Wind Speed Gust Speed Precip Events Conditions
12:55 AM 77.4 °F - 51.1 °F 40% 29.94 in 10.0 mi NE 5.8 mph - N/A   Clear
1:55 AM 74.5 °F - 50.9 °F 43% 29.96 in 10.0 mi NE 8.1 mph - N/A   Clear
2:55 AM 73.2 °F - 51.4 °F 46% 29.95 in 10.0 mi North 6.9 mph - N/A   Clear
3:55 AM 73.2 °F - 51.8 °F 47% 29.96 in 10.0 mi NNW 8.1 mph - N/A   Clear
4:55 AM 72.9 °F - 52.3 °F 48% 29.98 in 10.0 mi NNW 8.1 mph - N/A   Clear
5:55 AM 71.4 °F - 52.7 °F 52% 29.98 in 10.0 mi NNW 4.6 mph - N/A   Clear
6:55 AM 68.9 °F - 52.9 °F 57% 29.99 in 10.0 mi North 4.6 mph - N/A   Clear
7:55 AM 72.5 °F - 53.8 °F 52% 30.01 in 10.0 mi NNW 5.8 mph - N/A   Clear
8:55 AM 80.2 °F 80.2 °F 54.5 °F 41% 30.02 in 10.0 mi NNE 10.4 mph - N/A   Clear
9:55 AM 86.7 °F 84.7 °F 54.0 °F 32% 30.04 in 10.0 mi NE 11.5 mph - N/A   Clear
10:55 AM 89.1 °F 87.1 °F 54.3 °F 31% 30.04 in 10.0 mi NE 9.2 mph - N/A   Clear
11:55 AM 92.8 °F 90.9 °F 54.9 °F 28% 30.02 in 10.0 mi NNE 8.1 mph - N/A   Clear
12:55 PM 93.9 °F 92.0 °F 54.7 °F 27% 30.01 in 10.0 mi Calm Calm - N/A   Clear
1:55 PM 95.5 °F 93.1 °F 53.4 °F 24% 29.99 in 10.0 mi Variable 4.6 mph - N/A   Clear
2:55 PM 97.9 °F - 51.1 °F 21% 29.96 in 10.0 mi NNE 5.8 mph - N/A   Clear
3:55 PM 99.3 °F - 51.6 °F 20% 29.94 in 10.0 mi NE 11.5 mph - N/A   Clear
4:55 PM 99.1 °F - 51.6 °F 20% 29.93 in 10.0 mi NNE 4.6 mph - N/A   Clear
5:55 PM 99.5 °F - 51.1 °F 20% 29.91 in 10.0 mi ENE 10.4 mph - N/A   Clear
6:55 PM 98.1 °F - 51.3 °F 21% 29.90 in 10.0 mi East 10.4 mph - N/A   Clear
7:55 PM 95.2 °F - 52.0 °F 23% 29.89 in 10.0 mi East 8.1 mph - N/A   Clear
8:55 PM 88.2 °F - 51.1 °F 28% 29.91 in 10.0 mi East 9.2 mph - N/A   Clear
9:55 PM 82.4 °F - 51.4 °F 34% 29.93 in 10.0 mi East 6.9 mph - N/A   Clear
10:55 PM 82.6 °F - 51.3 °F 34% 29.94 in 10.0 mi East 11.5 mph - N/A   Clear
11:55 PM 79.2 °F - 50.7 °F 37% 29.95 in 10.0 mi East 8.1 mph - N/A   Clear